Wetterdaten: aktuell Sonntag, 23.09.2018 17:05
Datum Zeit Temp. A. Aussen2m Boden Feuchte A. Feuchte 2 Luftdruck Regen Wind Richtung Richtung Sonnenschein
23.09.2018 17:05 10,7 C 12,0 C 10,8 C 88 % 82 % 1007,8 hPa 0,3 l/m 16,9 km/h (3 Bft) W-NW 295 0 min
23.09.2018 17:00 10,6 C 12,0 C 10,8 C 88 % 82 % 1007,8 hPa 0,0 l/m 24,2 km/h (4 Bft) N 5 0 min
23.09.2018 16:55 10,7 C 12,0 C 10,8 C 88 % 82 % 1007,8 hPa 0,0 l/m 24,2 km/h (4 Bft) N 5 0 min
23.09.2018 16:50 10,7 C 12,0 C 10,8 C 88 % 82 % 1007,8 hPa 0,0 l/m 20,0 km/h (4 Bft) NO 35 0 min
23.09.2018 16:45 10,7 C 12,0 C 10,8 C 88 % 82 % 1007,8 hPa 0,0 l/m 21,2 km/h (4 Bft) W-NW 295 0 min
23.09.2018 16:40 10,7 C 12,0 C 10,8 C 88 % 82 % 1007,8 hPa 0,0 l/m 25,4 km/h (4 Bft) N-NO 15 0 min
23.09.2018 16:35 10,8 C 12,0 C 10,8 C 88 % 82 % 1007,8 hPa 0,3 l/m 24,2 km/h (4 Bft) N-NW 340 0 min
23.09.2018 16:30 10,9 C 12,0 C 10,8 C 88 % 82 % 1007,8 hPa 0,0 l/m 20,6 km/h (4 Bft) NO 35 0 min
23.09.2018 16:25 10,9 C 12,0 C 10,8 C 88 % 82 % 1007,8 hPa 0,0 l/m 17,6 km/h (3 Bft) N 5 0 min
23.09.2018 16:20 10,9 C 12,0 C 10,8 C 88 % 82 % 1007,8 hPa 0,0 l/m 21,8 km/h (4 Bft) NO 35 0 min
23.09.2018 16:15 10,8 C 12,0 C 10,8 C 87 % 82 % 1007,8 hPa 0,3 l/m 20,0 km/h (4 Bft) N-NO 30 0 min
23.09.2018 16:10 10,8 C 12,0 C 10,8 C 87 % 82 % 1006,7 hPa 0,0 l/m 18,8 km/h (3 Bft) N-NO 15 0 min
23.09.2018 16:05 10,8 C 12,0 C 10,8 C 88 % 82 % 1006,7 hPa 0,0 l/m 32,5 km/h (5 Bft) N 355 0 min
23.09.2018 16:00 11,1 C 12,0 C 10,8 C 88 % 82 % 1006,7 hPa 0,0 l/m 20,6 km/h (4 Bft) N-NW 340 0 min
23.09.2018 15:55 11,1 C 12,0 C 10,8 C 87 % 82 % 1005,7 hPa 0,0 l/m 16,3 km/h (3 Bft) W-NW 290 0 min
23.09.2018 15:50 11,0 C 12,0 C 10,8 C 87 % 82 % 1005,7 hPa 0,3 l/m 24,2 km/h (4 Bft) N 0 0 min
23.09.2018 15:45 11,0 C 12,0 C 10,8 C 88 % 82 % 1005,7 hPa 0,0 l/m 23,0 km/h (4 Bft) N 10 0 min
23.09.2018 15:40 10,9 C 12,0 C 10,8 C 88 % 82 % 1006,7 hPa 0,0 l/m 26,7 km/h (4 Bft) NO 45 0 min
23.09.2018 15:35 11,0 C 12,0 C 10,8 C 88 % 82 % 1006,7 hPa 0,0 l/m 15,7 km/h (3 Bft) N-NO 15 0 min
23.09.2018 15:30 11,0 C 12,0 C 10,8 C 88 % 82 % 1006,7 hPa 0,3 l/m 15,1 km/h (3 Bft) N-NW 345 0 min
23.09.2018 15:25 10,9 C 12,0 C 10,8 C 88 % 82 % 1006,7 hPa 0,3 l/m 26,3 km/h (4 Bft) N-NO 25 0 min
23.09.2018 15:20 10,9 C 12,0 C 10,8 C 88 % 82 % 1006,7 hPa 0,0 l/m 28,2 km/h (5 Bft) NO 35 0 min
23.09.2018 15:15 11,0 C 12,0 C 10,8 C 89 % 82 % 1006,7 hPa 0,3 l/m 24,8 km/h (4 Bft) N 0 0 min
23.09.2018 15:10 11,0 C 12,0 C 10,8 C 89 % 82 % 1006,7 hPa 0,0 l/m 22,4 km/h (4 Bft) N 350 0 min
23.09.2018 15:05 11,0 C 12,0 C 10,8 C 89 % 82 % 1006,7 hPa 0,0 l/m 21,8 km/h (4 Bft) N 355 0 min
23.09.2018 15:00 11,0 C 12,0 C 10,8 C 89 % 82 % 1006,7 hPa 0,3 l/m 15,7 km/h (3 Bft) NO 35 0 min
23.09.2018 14:55 11,0 C 12,0 C 10,8 C 89 % 82 % 1005,7 hPa 0,3 l/m 26,7 km/h (4 Bft) N-NO 15 0 min
23.09.2018 14:50 11,1 C 12,0 C 10,8 C 89 % 82 % 1005,7 hPa 0,3 l/m 28,6 km/h (5 Bft) N-NO 30 0 min
23.09.2018 14:45 11,0 C 12,0 C 10,8 C 89 % 82 % 1005,7 hPa 0,6 l/m 32,1 km/h (5 Bft) N-NO 30 0 min
23.09.2018 14:40 11,1 C 12,0 C 10,8 C 89 % 82 % 1006,7 hPa 0,3 l/m 34,0 km/h (5 Bft) N-NO 20 0 min
23.09.2018 14:35 11,3 C 12,0 C 10,8 C 89 % 82 % 1006,7 hPa 0,3 l/m 24,2 km/h (4 Bft) N 5 0 min
23.09.2018 14:30 11,3 C 12,0 C 10,8 C 89 % 82 % 1006,7 hPa 0,0 l/m 27,1 km/h (5 Bft) N 10 0 min
23.09.2018 14:25 11,4 C 12,0 C 10,8 C 89 % 82 % 1005,7 hPa 0,3 l/m 19,4 km/h (3 Bft) N-NO 20 0 min
23.09.2018 14:20 11,4 C 12,0 C 10,8 C 89 % 82 % 1005,7 hPa 0,3 l/m 21,8 km/h (4 Bft) N-NO 25 0 min
23.09.2018 14:15 11,5 C 12,0 C 10,8 C 89 % 82 % 1005,7 hPa 0,3 l/m 20,6 km/h (4 Bft) N-NO 20 0 min
23.09.2018 14:10 11,5 C 12,0 C 10,8 C 89 % 82 % 1006,7 hPa 0,9 l/m 23,0 km/h (4 Bft) N 0 0 min
23.09.2018 14:05 11,7 C 12,0 C 10,8 C 89 % 82 % 1006,7 hPa 0,9 l/m 23,6 km/h (4 Bft) N-NW 330 0 min
23.09.2018 14:00 11,7 C 12,0 C 10,8 C 89 % 82 % 1006,7 hPa 0,3 l/m 24,2 km/h (4 Bft) N-NO 15 0 min
23.09.2018 13:55 11,8 C 12,0 C 10,8 C 90 % 82 % 1004,7 hPa 0,3 l/m 22,4 km/h (4 Bft) N-NO 30 0 min
23.09.2018 13:50 11,8 C 12,0 C 10,8 C 90 % 82 % 1004,7 hPa 0,0 l/m 23,0 km/h (4 Bft) N-NW 345 0 min
23.09.2018 13:45 11,9 C 12,0 C 10,8 C 90 % 82 % 1004,7 hPa 0,0 l/m 19,4 km/h (3 Bft) O-NO 60 0 min
23.09.2018 13:40 11,9 C 12,0 C 10,8 C 90 % 82 % 1004,7 hPa 0,0 l/m 18,8 km/h (3 Bft) NO 40 0 min
23.09.2018 13:35 11,8 C 12,0 C 10,8 C 90 % 82 % 1004,7 hPa 0,0 l/m 21,8 km/h (4 Bft) O-NO 65 0 min
23.09.2018 13:30 11,8 C 12,0 C 10,8 C 90 % 82 % 1004,7 hPa 0,0 l/m 23,0 km/h (4 Bft) N-NO 15 0 min
23.09.2018 13:25 11,8 C 12,0 C 10,8 C 90 % 82 % 1004,7 hPa 0,3 l/m 20,6 km/h (4 Bft) O-NO 60 0 min
23.09.2018 13:20 11,8 C 12,0 C 10,8 C 90 % 82 % 1004,7 hPa 0,6 l/m 14,5 km/h (3 Bft) N-NO 30 0 min
23.09.2018 13:15 11,8 C 12,0 C 10,8 C 90 % 82 % 1004,7 hPa 0,0 l/m 14,5 km/h (3 Bft) NO 35 0 min
23.09.2018 13:10 11,8 C 12,0 C 10,8 C 90 % 82 % 1005,7 hPa 0,6 l/m 14,5 km/h (3 Bft) NO 55 0 min
23.09.2018 13:05 11,7 C 12,0 C 10,8 C 90 % 82 % 1005,7 hPa 0,3 l/m 13,9 km/h (3 Bft) N-NW 330 0 min
23.09.2018 13:00 11,8 C 12,0 C 10,8 C 90 % 82 % 1005,7 hPa 0,6 l/m 10,9 km/h (2 Bft) N 355 0 min
23.09.2018 12:55 11,8 C 12,0 C 10,8 C 90 % 82 % 1006,7 hPa 0,9 l/m 18,8 km/h (3 Bft) N-NO 15 0 min
23.09.2018 12:50 12,0 C 12,0 C 10,8 C 89 % 82 % 1006,7 hPa 0,9 l/m 17,6 km/h (3 Bft) N 350 0 min
23.09.2018 12:45 12,0 C 12,0 C 10,8 C 89 % 82 % 1006,7 hPa 0,6 l/m 13,9 km/h (3 Bft) NO 35 0 min
23.09.2018 12:40 12,1 C 12,0 C 10,8 C 89 % 82 % 1005,7 hPa 0,9 l/m 9,7 km/h (2 Bft) N 0 0 min
23.09.2018 12:35 12,1 C 12,0 C 10,8 C 89 % 82 % 1005,7 hPa 0,6 l/m 12,1 km/h (2 Bft) N 350 0 min
23.09.2018 12:30 12,1 C 12,0 C 10,8 C 89 % 82 % 1005,7 hPa 0,0 l/m 10,9 km/h (2 Bft) N-NO 30 0 min
23.09.2018 12:25 12,1 C 12,0 C 10,8 C 88 % 82 % 1006,7 hPa 0,3 l/m 8,5 km/h (2 Bft) O-NO 60 0 min
23.09.2018 12:20 12,2 C 12,0 C 10,8 C 88 % 82 % 1006,7 hPa 0,0 l/m 7,3 km/h (2 Bft) NO 50 0 min
23.09.2018 12:15 12,2 C 12,0 C 10,8 C 88 % 82 % 1006,7 hPa 0,0 l/m 6,1 km/h (2 Bft) N 10 0 min
23.09.2018 12:10 12,3 C 12,0 C 10,8 C 88 % 82 % 1005,7 hPa 0,3 l/m 6,1 km/h (2 Bft) SO 135 0 min
23.09.2018 12:05 12,2 C 12,0 C 10,8 C 88 % 82 % 1005,7 hPa 0,0 l/m 6,7 km/h (2 Bft) N-NW 345 0 min
23.09.2018 12:00 12,3 C 12,0 C 10,8 C 88 % 82 % 1005,7 hPa 0,3 l/m 3,6 km/h (1 Bft) S-SO 160 0 min
23.09.2018 11:55 12,3 C 12,0 C 10,8 C 88 % 82 % 1006,7 hPa 0,3 l/m 4,2 km/h (1 Bft) N 10 0 min
23.09.2018 11:50 12,3 C 12,0 C 10,8 C 88 % 82 % 1006,7 hPa 0,0 l/m 7,3 km/h (2 Bft) O 90 0 min
23.09.2018 11:45 12,3 C 12,0 C 10,8 C 88 % 82 % 1006,7 hPa 0,0 l/m 3,6 km/h (1 Bft) NW 305 0 min
23.09.2018 11:40 12,4 C 12,0 C 10,8 C 88 % 82 % 1007,7 hPa 0,0 l/m 5,4 km/h (2 Bft) N-NO 20 0 min
23.09.2018 11:35 12,3 C 12,0 C 10,8 C 88 % 82 % 1007,7 hPa 0,3 l/m 3,6 km/h (1 Bft) N-NW 345 0 min
23.09.2018 11:30 12,3 C 12,0 C 10,8 C 87 % 82 % 1007,7 hPa 0,3 l/m 4,8 km/h (1 Bft) N 10 0 min
23.09.2018 11:25 12,3 C 12,0 C 10,8 C 87 % 82 % 1007,7 hPa 0,0 l/m 7,3 km/h (2 Bft) N-NO 15 0 min
23.09.2018 11:20 12,4 C 12,0 C 10,8 C 87 % 82 % 1007,7 hPa 0,0 l/m 4,2 km/h (1 Bft) N-NW 340 0 min
23.09.2018 11:15 12,4 C 12,0 C 10,8 C 87 % 82 % 1007,7 hPa 0,0 l/m 6,1 km/h (2 Bft) N-NO 25 0 min
23.09.2018 11:10 12,4 C 12,0 C 10,8 C 87 % 82 % 1007,7 hPa 0,0 l/m 3,6 km/h (1 Bft) SO 130 0 min
23.09.2018 11:05 12,4 C 12,0 C 10,8 C 87 % 82 % 1007,7 hPa 0,0 l/m 6,1 km/h (2 Bft) NO 45 0 min
23.09.2018 11:00 12,4 C 12,0 C 10,8 C 87 % 82 % 1007,7 hPa 0,0 l/m 3,6 km/h (1 Bft) O-NO 75 0 min
23.09.2018 10:55 12,4 C 12,0 C 10,8 C 87 % 82 % 1007,7 hPa 0,0 l/m 7,3 km/h (2 Bft) N 0 0 min
23.09.2018 10:50 12,3 C 12,0 C 10,8 C 87 % 82 % 1007,7 hPa 0,0 l/m 8,5 km/h (2 Bft) N-NO 25 0 min
23.09.2018 10:45 12,4 C 12,0 C 10,8 C 87 % 82 % 1007,7 hPa 0,0 l/m 5,4 km/h (2 Bft) N-NW 335 0 min
23.09.2018 10:40 12,4 C 12,0 C 10,8 C 87 % 82 % 1007,7 hPa 0,0 l/m 4,2 km/h (1 Bft) O 100 0 min
23.09.2018 10:35 12,3 C 12,0 C 10,8 C 87 % 82 % 1007,7 hPa 0,0 l/m 4,2 km/h (1 Bft) N 0 0 min
23.09.2018 10:30 12,4 C 12,0 C 10,8 C 87 % 82 % 1007,7 hPa 0,3 l/m 5,4 km/h (2 Bft) O 85 0 min
23.09.2018 10:25 12,3 C 12,0 C 10,8 C 87 % 82 % 1007,7 hPa 0,0 l/m 3,0 km/h (1 Bft) O 90 0 min
23.09.2018 10:20 12,2 C 12,0 C 10,8 C 87 % 82 % 1007,7 hPa 0,0 l/m 3,6 km/h (1 Bft) O 90 0 min
23.09.2018 10:15 12,2 C 12,0 C 10,8 C 87 % 82 % 1007,7 hPa 0,0 l/m 6,1 km/h (2 Bft) NO 45 0 min
23.09.2018 10:10 12,1 C 12,0 C 10,8 C 88 % 82 % 1007,7 hPa 0,0 l/m 9,7 km/h (2 Bft) NO 50 0 min
23.09.2018 10:05 12,1 C 12,0 C 10,8 C 88 % 82 % 1007,7 hPa 0,0 l/m 8,5 km/h (2 Bft) O-SO 115 0 min
23.09.2018 10:00 12,0 C 12,0 C 10,8 C 88 % 82 % 1007,7 hPa 0,0 l/m 5,4 km/h (2 Bft) O-NO 70 0 min
23.09.2018 09:55 12,0 C 12,0 C 10,8 C 88 % 82 % 1008,7 hPa 0,0 l/m 7,3 km/h (2 Bft) O-NO 75 0 min
23.09.2018 09:50 11,9 C 12,0 C 10,8 C 88 % 82 % 1008,7 hPa 0,0 l/m 10,9 km/h (2 Bft) SO 135 0 min
23.09.2018 09:45 11,9 C 12,0 C 10,8 C 89 % 82 % 1008,7 hPa 0,0 l/m 5,4 km/h (2 Bft) O 80 0 min
23.09.2018 09:40 11,9 C 12,0 C 10,8 C 89 % 82 % 1008,7 hPa 0,0 l/m 6,7 km/h (2 Bft) O 100 0 min
23.09.2018 09:35 11,8 C 12,0 C 10,8 C 89 % 82 % 1008,7 hPa 0,0 l/m 1,8 km/h (1 Bft) O-NO 60 0 min
23.09.2018 09:30 11,8 C 12,0 C 10,8 C 89 % 82 % 1008,7 hPa 0,0 l/m 8,5 km/h (2 Bft) N-NO 25 0 min
23.09.2018 09:25 11,7 C 12,0 C 10,8 C 89 % 82 % 1007,7 hPa 0,0 l/m 10,3 km/h (2 Bft) NO 40 0 min
23.09.2018 09:20 11,7 C 12,0 C 10,8 C 89 % 82 % 1007,7 hPa 0,0 l/m 7,9 km/h (2 Bft) N 10 0 min
23.09.2018 09:15 11,7 C 12,0 C 10,8 C 89 % 82 % 1007,7 hPa 0,0 l/m 10,3 km/h (2 Bft) N-NO 15 0 min
23.09.2018 09:10 11,7 C 12,0 C 10,8 C 89 % 82 % 1008,7 hPa 0,0 l/m 8,5 km/h (2 Bft) N-NO 30 0 min
23.09.2018 09:05 11,7 C 12,0 C 10,8 C 90 % 82 % 1008,7 hPa 0,0 l/m 4,2 km/h (1 Bft) N 10 0 min
23.09.2018 09:00 11,6 C 12,0 C 10,8 C 90 % 82 % 1008,7 hPa 0,0 l/m 7,3 km/h (2 Bft) NO 50 0 min
23.09.2018 08:55 11,6 C 12,0 C 10,8 C 90 % 82 % 1008,7 hPa 0,0 l/m 4,8 km/h (1 Bft) NO 35 0 min
23.09.2018 08:50 11,5 C 12,0 C 10,8 C 90 % 82 % 1008,7 hPa 0,0 l/m 0,6 km/h (0 Bft) N-NO 30 0 min
23.09.2018 08:45 11,4 C 12,0 C 10,8 C 90 % 82 % 1008,7 hPa 0,0 l/m 2,4 km/h (1 Bft) O 85 0 min
23.09.2018 08:40 11,4 C 12,0 C 10,8 C 90 % 82 % 1009,8 hPa 0,0 l/m 4,8 km/h (1 Bft) O-SO 105 0 min
23.09.2018 08:35 11,4 C 12,0 C 10,8 C 90 % 82 % 1009,8 hPa 0,0 l/m 4,2 km/h (1 Bft) O-NO 75 0 min
23.09.2018 08:30 11,4 C 12,0 C 10,8 C 90 % 82 % 1009,8 hPa 0,0 l/m 4,2 km/h (1 Bft) N-NO 30 0 min
23.09.2018 08:25 11,4 C 12,0 C 10,8 C 90 % 82 % 1009,8 hPa 0,0 l/m 2,4 km/h (1 Bft) O 90 0 min
23.09.2018 08:20 11,4 C 12,0 C 10,8 C 90 % 82 % 1009,8 hPa 0,0 l/m 2,4 km/h (1 Bft) SO 125 0 min
23.09.2018 08:15 11,3 C 12,0 C 10,8 C 90 % 82 % 1009,8 hPa 0,0 l/m 1,8 km/h (1 Bft) O-NO 75 0 min
23.09.2018 08:10 11,3 C 12,0 C 10,8 C 90 % 82 % 1008,7 hPa 0,0 l/m 2,4 km/h (1 Bft) N-NO 15 0 min
23.09.2018 08:05 11,3 C 12,0 C 10,8 C 91 % 82 % 1008,7 hPa 0,0 l/m 2,4 km/h (1 Bft) NO 55 0 min
23.09.2018 08:00 11,2 C 12,0 C 10,8 C 90 % 82 % 1008,8 hPa 0,0 l/m 3,6 km/h (1 Bft) N 10 0 min
23.09.2018 07:55 11,2 C 12,0 C 10,8 C 91 % 82 % 1008,8 hPa 0,0 l/m 3,6 km/h (1 Bft) O-SO 115 0 min
23.09.2018 07:50 11,2 C 12,0 C 10,8 C 91 % 82 % 1008,8 hPa 0,0 l/m 6,1 km/h (2 Bft) O-SO 105 0 min
23.09.2018 07:45 11,2 C 12,0 C 10,8 C 91 % 82 % 1008,8 hPa 0,0 l/m 3,6 km/h (1 Bft) O-NO 70 0 min
23.09.2018 07:40 11,2 C 12,0 C 10,8 C 91 % 82 % 1008,8 hPa 0,0 l/m 3,0 km/h (1 Bft) N-NO 30 0 min
23.09.2018 07:35 11,2 C 12,0 C 10,8 C 91 % 82 % 1008,8 hPa 0,0 l/m 1,8 km/h (1 Bft) N 5 0 min
23.09.2018 07:30 11,2 C 12,0 C 10,8 C 91 % 82 % 1008,8 hPa 0,0 l/m 4,2 km/h (1 Bft) O 90 0 min
23.09.2018 07:25 11,2 C 12,0 C 10,8 C 91 % 82 % 1008,8 hPa 0,0 l/m 6,1 km/h (2 Bft) O 95 0 min
23.09.2018 07:20 11,1 C 12,0 C 10,8 C 91 % 82 % 1008,8 hPa 0,0 l/m 6,7 km/h (2 Bft) N 10 0 min
23.09.2018 07:15 11,1 C 12,0 C 10,8 C 91 % 82 % 1008,8 hPa 0,0 l/m 3,0 km/h (1 Bft) O-SO 105 0 min
23.09.2018 07:10 11,1 C 12,0 C 10,8 C 91 % 82 % 1008,8 hPa 0,0 l/m 6,1 km/h (2 Bft) O 90 0 min
23.09.2018 07:05 11,1 C 12,0 C 10,8 C 91 % 82 % 1008,8 hPa 0,0 l/m 5,4 km/h (2 Bft) O-SO 110 0 min
23.09.2018 07:00 11,0 C 12,0 C 10,8 C 90 % 82 % 1008,8 hPa 0,0 l/m 7,3 km/h (2 Bft) O 90 0 min
23.09.2018 06:55 11,0 C 12,0 C 10,8 C 90 % 82 % 1009,8 hPa 0,0 l/m 5,4 km/h (2 Bft) O-SO 115 0 min
23.09.2018 06:50 11,0 C 12,0 C 10,8 C 90 % 82 % 1009,8 hPa 0,0 l/m 3,0 km/h (1 Bft) O 80 0 min
23.09.2018 06:45 11,0 C 12,0 C 10,8 C 90 % 82 % 1009,8 hPa 0,0 l/m 7,9 km/h (2 Bft) O-NO 70 0 min
23.09.2018 06:40 11,1 C 12,0 C 10,8 C 90 % 82 % 1008,8 hPa 0,0 l/m 5,4 km/h (2 Bft) SO 130 0 min
23.09.2018 06:35 11,1 C 12,0 C 10,8 C 90 % 82 % 1008,8 hPa 0,0 l/m 3,6 km/h (1 Bft) O-SO 115 0 min
23.09.2018 06:30 11,1 C 12,0 C 10,8 C 90 % 82 % 1008,8 hPa 0,0 l/m 2,4 km/h (1 Bft) S 175 0 min
23.09.2018 06:25 11,1 C 12,0 C 10,8 C 90 % 82 % 1008,8 hPa 0,0 l/m 6,7 km/h (2 Bft) W-SW 240 0 min
23.09.2018 06:20 11,1 C 12,0 C 10,8 C 90 % 82 % 1008,8 hPa 0,3 l/m 6,1 km/h (2 Bft) O 80 0 min
23.09.2018 06:15 11,1 C 12,0 C 10,8 C 90 % 82 % 1008,8 hPa 0,0 l/m 6,7 km/h (2 Bft) O 80 0 min
23.09.2018 06:10 11,1 C 12,0 C 10,8 C 90 % 82 % 1008,8 hPa 0,0 l/m 9,1 km/h (2 Bft) SO 125 0 min
23.09.2018 06:05 11,1 C 12,0 C 10,8 C 90 % 82 % 1008,8 hPa 0,0 l/m 6,7 km/h (2 Bft) O-SO 115 0 min
23.09.2018 06:00 11,1 C 12,0 C 10,8 C 90 % 82 % 1008,8 hPa 0,0 l/m 3,6 km/h (1 Bft) S 170 0 min
23.09.2018 05:55 11,1 C 12,0 C 10,8 C 90 % 82 % 1009,8 hPa 0,0 l/m 5,4 km/h (2 Bft) O 100 0 min
23.09.2018 05:50 11,1 C 12,0 C 10,8 C 90 % 82 % 1009,8 hPa 0,0 l/m 6,7 km/h (2 Bft) O-SO 110 0 min
23.09.2018 05:45 11,2 C 12,0 C 10,8 C 90 % 82 % 1009,8 hPa 0,0 l/m 3,6 km/h (1 Bft) SO 130 0 min
23.09.2018 05:40 11,2 C 12,0 C 10,8 C 89 % 82 % 1010,8 hPa 0,0 l/m 9,7 km/h (2 Bft) O-SO 105 0 min
23.09.2018 05:35 11,2 C 12,0 C 10,8 C 89 % 82 % 1010,8 hPa 0,0 l/m 6,1 km/h (2 Bft) S 175 0 min
23.09.2018 05:30 11,2 C 12,0 C 10,8 C 89 % 82 % 1010,8 hPa 0,0 l/m 9,1 km/h (2 Bft) O-SO 115 0 min
23.09.2018 05:25 11,3 C 12,0 C 10,8 C 89 % 82 % 1009,8 hPa 0,0 l/m 8,5 km/h (2 Bft) O-SO 120 0 min
23.09.2018 05:20 11,3 C 12,0 C 10,8 C 89 % 82 % 1009,8 hPa 0,0 l/m 9,1 km/h (2 Bft) O 100 0 min
23.09.2018 05:15 11,3 C 12,0 C 10,8 C 89 % 82 % 1009,8 hPa 0,0 l/m 5,4 km/h (2 Bft) O-SO 115 0 min
23.09.2018 05:10 11,3 C 12,0 C 10,8 C 89 % 82 % 1010,8 hPa 0,0 l/m 6,7 km/h (2 Bft) S 175 0 min
23.09.2018 05:05 11,3 C 12,0 C 10,8 C 89 % 82 % 1010,8 hPa 0,0 l/m 6,7 km/h (2 Bft) O-SO 120 0 min
23.09.2018 05:00 11,3 C 12,0 C 10,8 C 89 % 82 % 1010,8 hPa 0,0 l/m 4,2 km/h (1 Bft) O-SO 110 0 min
23.09.2018 04:55 11,3 C 12,0 C 10,8 C 89 % 82 % 1011,8 hPa 0,0 l/m 7,9 km/h (2 Bft) S 170 0 min
23.09.2018 04:50 11,3 C 12,0 C 10,8 C 89 % 82 % 1011,8 hPa 0,0 l/m 8,5 km/h (2 Bft) SO 145 0 min
23.09.2018 04:45 11,2 C 12,0 C 10,8 C 89 % 82 % 1011,8 hPa 0,0 l/m 7,9 km/h (2 Bft) SO 140 0 min
23.09.2018 04:40 11,2 C 12,0 C 10,8 C 89 % 82 % 1010,8 hPa 0,0 l/m 9,7 km/h (2 Bft) S-SO 150 0 min
23.09.2018 04:35 11,2 C 12,0 C 10,8 C 89 % 82 % 1010,8 hPa 0,0 l/m 7,9 km/h (2 Bft) O-SO 105 0 min
23.09.2018 04:30 11,2 C 12,0 C 10,8 C 89 % 82 % 1010,8 hPa 0,0 l/m 9,1 km/h (2 Bft) S-SO 150 0 min
23.09.2018 04:25 11,1 C 12,0 C 10,8 C 89 % 82 % 1011,8 hPa 0,0 l/m 9,7 km/h (2 Bft) S-SO 155 0 min
23.09.2018 04:20 11,0 C 12,0 C 10,8 C 89 % 82 % 1011,8 hPa 0,0 l/m 7,9 km/h (2 Bft) O 80 0 min
23.09.2018 04:15 11,0 C 12,0 C 10,8 C 89 % 82 % 1011,8 hPa 0,0 l/m 7,9 km/h (2 Bft) O-SO 110 0 min
23.09.2018 04:10 11,0 C 12,0 C 10,8 C 89 % 82 % 1011,8 hPa 0,0 l/m 8,5 km/h (2 Bft) O-SO 115 0 min
23.09.2018 04:05 11,0 C 12,0 C 10,8 C 89 % 82 % 1011,8 hPa 0,0 l/m 7,3 km/h (2 Bft) O-NO 75 0 min
23.09.2018 04:00 11,0 C 12,0 C 10,8 C 89 % 82 % 1011,8 hPa 0,0 l/m 8,5 km/h (2 Bft) O-SO 115 0 min
23.09.2018 03:55 11,0 C 12,0 C 10,8 C 89 % 82 % 1010,8 hPa 0,0 l/m 9,1 km/h (2 Bft) O-SO 105 0 min
23.09.2018 03:50 11,0 C 12,0 C 10,8 C 88 % 82 % 1010,8 hPa 0,0 l/m 5,4 km/h (2 Bft) O-SO 110 0 min
23.09.2018 03:45 11,0 C 12,0 C 10,8 C 88 % 82 % 1010,8 hPa 0,3 l/m 7,3 km/h (2 Bft) S-SO 160 0 min
23.09.2018 03:40 11,0 C 12,0 C 10,8 C 88 % 82 % 1011,8 hPa 0,0 l/m 7,3 km/h (2 Bft) S-SO 160 0 min
23.09.2018 03:35 10,9 C 12,0 C 10,8 C 88 % 82 % 1011,8 hPa 0,0 l/m 5,4 km/h (2 Bft) SO 145 0 min
23.09.2018 03:30 10,9 C 12,0 C 10,8 C 88 % 82 % 1011,8 hPa 0,0 l/m 9,1 km/h (2 Bft) O-SO 105 0 min
23.09.2018 03:25 10,8 C 12,0 C 10,8 C 88 % 82 % 1012,8 hPa 0,0 l/m 9,7 km/h (2 Bft) O-SO 110 0 min
23.09.2018 03:20 10,8 C 12,0 C 10,8 C 88 % 82 % 1012,8 hPa 0,0 l/m 8,5 km/h (2 Bft) S-SW 195 0 min
23.09.2018 03:15 10,8 C 12,0 C 10,8 C 88 % 82 % 1012,8 hPa 0,0 l/m 7,9 km/h (2 Bft) SO 130 0 min
23.09.2018 03:10 10,8 C 12,0 C 10,8 C 88 % 82 % 1011,8 hPa 0,0 l/m 12,7 km/h (3 Bft) O 95 0 min
23.09.2018 03:05 10,8 C 12,0 C 10,8 C 89 % 82 % 1011,8 hPa 0,0 l/m 11,5 km/h (2 Bft) NO 45 0 min
23.09.2018 03:00 10,8 C 12,0 C 10,8 C 89 % 82 % 1011,8 hPa 0,0 l/m 8,5 km/h (2 Bft) O 85 0 min
23.09.2018 02:55 10,8 C 12,0 C 10,8 C 89 % 82 % 1012,8 hPa 0,0 l/m 14,5 km/h (3 Bft) SO 125 0 min
23.09.2018 02:50 10,8 C 12,0 C 10,8 C 88 % 82 % 1012,8 hPa 0,0 l/m 9,1 km/h (2 Bft) SO 135 0 min
23.09.2018 02:45 10,8 C 12,0 C 10,8 C 88 % 82 % 1012,8 hPa 0,0 l/m 12,7 km/h (3 Bft) S-SO 165 0 min
23.09.2018 02:40 10,8 C 12,0 C 10,8 C 88 % 82 % 1013,8 hPa 0,0 l/m 12,7 km/h (3 Bft) SO 140 0 min
23.09.2018 02:35 10,8 C 12,0 C 10,8 C 88 % 82 % 1013,8 hPa 0,0 l/m 8,5 km/h (2 Bft) S 180 0 min
23.09.2018 02:30 10,8 C 12,0 C 10,8 C 88 % 82 % 1013,8 hPa 0,0 l/m 7,3 km/h (2 Bft) S-SO 160 0 min
23.09.2018 02:25 10,8 C 12,0 C 10,8 C 88 % 82 % 1013,8 hPa 0,0 l/m 10,9 km/h (2 Bft) S-SO 165 0 min
23.09.2018 02:20 10,8 C 12,0 C 10,8 C 88 % 82 % 1013,8 hPa 0,0 l/m 12,1 km/h (2 Bft) S-SO 160 0 min
23.09.2018 02:15 10,8 C 12,0 C 10,8 C 87 % 82 % 1013,8 hPa 0,0 l/m 7,3 km/h (2 Bft) S-SO 155 0 min
23.09.2018 02:10 10,8 C 12,0 C 10,8 C 87 % 82 % 1013,8 hPa 0,0 l/m 3,6 km/h (1 Bft) O-SO 115 0 min
23.09.2018 02:05 10,7 C 12,0 C 10,8 C 87 % 82 % 1013,8 hPa 0,0 l/m 7,3 km/h (2 Bft) SO 145 0 min
23.09.2018 02:00 10,7 C 12,0 C 10,8 C 86 % 82 % 1013,8 hPa 0,0 l/m 9,1 km/h (2 Bft) S-SO 150 0 min
23.09.2018 01:55 10,7 C 12,0 C 10,8 C 86 % 82 % 1013,8 hPa 0,0 l/m 8,5 km/h (2 Bft) SO 145 0 min
23.09.2018 01:50 10,7 C 12,0 C 10,8 C 86 % 82 % 1013,8 hPa 0,0 l/m 9,7 km/h (2 Bft) SO 140 0 min
23.09.2018 01:45 10,7 C 12,0 C 10,8 C 86 % 82 % 1013,8 hPa 0,0 l/m 6,7 km/h (2 Bft) S-SO 160 0 min
23.09.2018 01:40 10,7 C 12,0 C 10,8 C 86 % 82 % 1014,8 hPa 0,0 l/m 9,7 km/h (2 Bft) S 185 0 min
23.09.2018 01:35 10,8 C 12,0 C 10,8 C 87 % 82 % 1014,8 hPa 0,0 l/m 10,9 km/h (2 Bft) SO 125 0 min
23.09.2018 01:30 10,8 C 12,0 C 10,8 C 87 % 82 % 1014,8 hPa 0,0 l/m 9,7 km/h (2 Bft) SO 140 0 min
23.09.2018 01:25 10,9 C 12,0 C 10,8 C 87 % 82 % 1014,8 hPa 0,0 l/m 9,7 km/h (2 Bft) S 185 0 min
23.09.2018 01:20 10,9 C 12,0 C 10,8 C 87 % 82 % 1014,8 hPa 0,0 l/m 3,6 km/h (1 Bft) S-SO 160 0 min
23.09.2018 01:15 10,9 C 12,0 C 10,8 C 87 % 82 % 1014,8 hPa 0,0 l/m 3,0 km/h (1 Bft) S 190 0 min
23.09.2018 01:10 10,8 C 12,0 C 10,8 C 87 % 82 % 1015,8 hPa 0,0 l/m 9,7 km/h (2 Bft) SO 140 0 min
23.09.2018 01:05 10,9 C 12,0 C 10,8 C 87 % 82 % 1015,8 hPa 0,0 l/m 7,3 km/h (2 Bft) S-SO 150 0 min
23.09.2018 01:00 10,9 C 12,0 C 10,8 C 87 % 82 % 1015,8 hPa 0,0 l/m 7,3 km/h (2 Bft) S 185 0 min
23.09.2018 00:55 10,9 C 12,0 C 10,8 C 87 % 82 % 1015,8 hPa 0,0 l/m 6,7 km/h (2 Bft) O-SO 120 0 min
23.09.2018 00:50 10,9 C 12,0 C 10,8 C 87 % 82 % 1015,8 hPa 0,0 l/m 7,3 km/h (2 Bft) SO 140 0 min
23.09.2018 00:45 10,8 C 12,0 C 10,8 C 87 % 82 % 1015,8 hPa 0,0 l/m 8,5 km/h (2 Bft) S 170 0 min
23.09.2018 00:40 10,8 C 12,0 C 10,8 C 87 % 82 % 1014,8 hPa 0,0 l/m 10,9 km/h (2 Bft) S-SO 160 0 min
23.09.2018 00:35 10,8 C 12,0 C 10,8 C 87 % 82 % 1014,8 hPa 0,0 l/m 9,1 km/h (2 Bft) S 175 0 min
23.09.2018 00:30 10,8 C 12,0 C 10,8 C 87 % 82 % 1014,8 hPa 0,0 l/m 7,3 km/h (2 Bft) S 185 0 min
23.09.2018 00:25 10,9 C 12,0 C 10,8 C 87 % 82 % 1014,8 hPa 0,0 l/m 8,5 km/h (2 Bft) S 170 0 min
23.09.2018 00:20 10,9 C 12,0 C 10,8 C 87 % 82 % 1014,8 hPa 0,0 l/m 9,1 km/h (2 Bft) S 190 0 min
23.09.2018 00:15 10,9 C 12,0 C 10,8 C 87 % 82 % 1014,8 hPa 0,0 l/m 9,1 km/h (2 Bft) S-SO 160 0 min
23.09.2018 00:10 11,0 C 12,0 C 10,8 C 87 % 82 % 1015,8 hPa 0,3 l/m 7,9 km/h (2 Bft) S-SO 165 0 min
23.09.2018 00:05 11,0 C 12,0 C 10,8 C 86 % 82 % 1015,8 hPa 0,0 l/m 7,3 km/h (2 Bft) SO 130 0 min
23.09.2018 00:00 11,0 C 12,0 C 10,8 C 86 % 82 % 1015,8 hPa 0,0 l/m 9,1 km/h (2 Bft) S-SW 195 0 min
_ Min-Zeit 17:00 00:00 00:00 00:00 00:00 13:40 - 08:50 - - -
Minimum _ 10,6 C 12,0 C 10,8 C 86 % 82 % 1004,7 hPa - 0,6 km/h (0 Bft) - - -
_ Max-Zeit 10:30 00:00 00:00 07:05 00:00 00:45 12:40 14:40 - - 00:00
Maximum _ 12,4 C 12,0 C 10,8 C 91 % 82 % 1015,8 hPa 0,9 l/m 34,0 km/h
N-NO (5 Bft)
- - 0 min
Durchschnitt _ 11,3 C 12,0 C 10,8 C 89 % 82 % 1009,3 hPa #16,5 l/m 10,6 km/h (2 Bft) N-NO - #0 min.